Location: Haliburton Scout Reserve
(45.0900°N, 78.3200°W)
Time: 10:34:13
(UTC-05:00)

SR - All Passes

Search period start: 29 January 2023 00:00
Search period end: 08 February 2023 00:00
Orbit: 581 x 870 km, 66.7° (Epoch: 28 January)

Date Brightness Start Highest point End Pass type
(mag) Time Alt. Az. Time Alt. Az. Time Alt. Az.
29 Jan - 00:51:33 10° NW 00:55:53 80° WSW 01:00:05 10° SSE night (unlit)
29 Jan - 15:22:21 10° S 15:27:21 44° ESE 15:32:00 10° NE daylight
29 Jan - 17:04:58 10° WSW 17:09:28 30° NW 17:13:41 10° NNE daylight
30 Jan - 00:01:11 10° NNW 00:05:23 47° NE 00:09:28 10° SE night (unlit)
30 Jan - 01:43:59 10° WNW 01:46:57 18° WSW 01:49:53 10° SSW night (unlit)
30 Jan - 14:33:04 10° SSE 14:37:07 23° ESE 14:40:56 10° ENE daylight
30 Jan - 16:13:44 10° SW 16:18:50 54° NW 16:23:32 10° NNE daylight
30 Jan - 17:59:57 10° NW 18:01:49 12° NNW 18:03:38 10° N visible
30 Jan - 23:11:05 10° NNW 23:14:42 25° NE 23:18:13 10° E night (unlit)
31 Jan - 00:52:46 10° NW 00:56:48 40° WSW 01:00:45 10° S night (unlit)
31 Jan - 13:45:45 10° ESE 13:47:01 11° ESE 13:48:17 10° E daylight
31 Jan - 15:23:05 10° SSW 15:28:20 80° ESE 15:33:10 10° NE daylight
31 Jan - 17:07:14 10° W 17:10:49 19° NW 17:14:14 10° N daylight
31 Jan - 22:21:21 10° N 22:23:48 15° NE 22:26:13 10° ENE night (unlit)
01 Feb - 00:02:08 10° NNW 00:06:27 90° NNE 00:10:41 10° SSE night (unlit)
01 Feb - 14:33:06 10° S 14:37:59 40° ESE 14:42:31 10° NE daylight
01 Feb - 16:15:27 10° WSW 16:20:02 32° NW 16:24:19 10° NNE daylight
01 Feb - 23:11:49 10° NNW 23:15:57 42° NE 23:19:58 10° ESE night (unlit)
02 Feb - 00:54:23 10° WNW 00:57:35 21° WSW 01:00:46 10° SSW night (unlit)
02 Feb - 13:44:00 10° SSE 13:47:45 20° ESE 13:51:20 10° ENE daylight
02 Feb - 15:24:18 10° SW 15:29:25 59° NW 15:34:08 10° NNE daylight
02 Feb - 17:10:08 10° WNW 17:12:18 13° NW 17:14:25 10° N daylight
02 Feb - 22:21:45 10° N 22:25:13 23° NE 22:28:36 10° E night (unlit)
03 Feb - 00:03:18 10° NW 00:07:24 45° WSW 00:11:27 10° S night (unlit)
03 Feb - 14:33:45 10° SSW 14:38:56 72° ESE 14:43:43 10° NE daylight
03 Feb - 16:17:36 10° W 16:21:21 21° NW 16:24:54 10° N daylight
03 Feb - 21:32:08 10° N 21:34:18 13° NE 21:36:26 10° ENE night (unlit)
03 Feb - 23:12:43 10° NNW 23:17:02 80° ENE 23:21:16 10° SE night (unlit)
04 Feb - 00:57:30 10° W 00:58:16 10° WSW 00:59:03 10° WSW night (unlit)
04 Feb - 13:43:52 10° S 13:48:36 36° ESE 13:53:01 10° NE daylight
04 Feb - 15:25:55 10° WSW 15:30:35 35° NW 15:34:56 10° NNE daylight
04 Feb - 22:22:26 10° NNW 22:26:29 38° NE 22:30:26 10° ESE night (unlit)
05 Feb - 00:04:49 10° WNW 00:08:13 23° WSW 00:11:36 10° SSW night (unlit)
05 Feb - 12:54:57 10° SSE 12:58:23 18° ESE 13:01:40 10° ENE daylight
05 Feb - 14:34:51 10° SW 14:39:59 66° NW 14:44:43 10° NNE daylight
05 Feb - 16:20:22 10° WNW 16:22:48 14° NW 16:25:09 10° N daylight
05 Feb - 21:32:26 10° N 21:35:44 21° NE 21:38:58 10° E visible
05 Feb - 23:13:50 10° NW 23:17:59 52° WSW 23:22:06 10° SSE night (unlit)
06 Feb - 13:44:24 10° SSW 13:49:32 64° ESE 13:54:16 10° NE daylight
06 Feb - 15:27:59 10° W 15:31:52 22° NW 15:35:32 10° N daylight
06 Feb - 20:42:56 10° N 20:44:47 12° NE 20:46:35 10° ENE visible
06 Feb - 22:23:18 10° NNW 22:27:35 71° NE 22:31:49 10° SE night (unlit)
07 Feb - 00:07:16 10° W 00:08:54 12° WSW 00:10:33 10° SW night (unlit)
07 Feb - 12:54:39 10° S 12:59:13 32° ESE 13:03:28 10° NE daylight
07 Feb - 14:36:24 10° WSW 14:41:07 38° NW 14:45:31 10° NNE daylight
07 Feb - 21:33:03 10° NNW 21:37:00 34° NE 21:40:53 10° ESE visible
07 Feb - 23:15:14 10° NW 23:18:49 26° WSW 23:22:22 10° S night (unlit)
